Location: Arrien
(43.3167°N, 0.1500°W)
Time: 22:26:18
(UTC+00:00)

H-2A R/B - Pass Details

Date: 15 October 2021
Orbit: 732 x 837 km, 98.2° (Epoch: 04 December)

Event Time Altitude Azimuth Distance (km) Brightness Sun altitude
Rises 18:54:36 0° 193° (SSW) 3,291 5.4 -18.4°
Reaches altitude 10° 18:57:09 10° 203° (SSW) 2,382 4.8 -18.9°
Maximum altitude 19:01:48 31° 265° (W) 1,402 4.0 -19.7°
Drops below altitude 10° 19:06:35 10° 327° (NNW) 2,444 5.1 -20.6°
Sets 19:09:15 0° 338° (NNW) 3,390 5.8 -21.1°
